Weather History for Northeast Philadelphia, PA

Change the Weather History Date:

Saturday, September 22, 2012

  Actual Average Record
Temperature  
Mean Temperature 70 °F -  
Max Temperature 82 °F 72 °F 89 °F (2010)
Min Temperature 57 °F 53 °F 41 °F (1997)
Cooling Degree Days 4    
Growing Degree Days 20 (Base 50)    
Moisture  
Dew Point 61 °F    
Average Humidity 80    
Maximum Humidity 100    
Minimum Humidity 47    
Precipitation  
Precipitation 0.34 in - - ()
Sea Level Pressure  
Sea Level Pressure 29.90 in    
Wind  
Wind Speed 5 mph (SSW)    
Max Wind Speed 21 mph    
Max Gust Speed 25 mph    
Visibility 9 miles    
Events Rain    
Averages and records for this station are not official NWS values.
T = Trace of Precipitation, MM = Missing Value Source: NWS Daily Summary

Daily Weather History Graph

Daily Weather History Graph

Search for Another Location

Airport:

Trip Planner

Search our weather history database for the weather conditions in past years. The results will help you decide how hot, cold, wet, or windy it might be!

Date:

Astronomy

Sep. 22, 2012 Rise Set
Actual Time 6:48 AM EDT 6:56 PM EDT
Civil Twilight 6:21 AM EDT 7:23 PM EDT
Nautical Twilight 5:49 AM EDT 7:55 PM EDT
Astronomical Twilight 5:17 AM EDT 8:27 PM EDT
Moon 2:03 PM EDT (9/22) 11:58 PM EDT (9/22)
Length of Visible Light 13h 02m
Length of Day
12h 08m
Waxing Crescent, 48% of the Moon is Illuminated
Sep 22
Waxing Crescent
Sep 22
First Quarter
Sep 29
Full
Oct 8
Last Quarter
Oct 15
New

Hourly Weather History & Observations

Time (EDT) Temp. Heat Index Dew Point Humidity Pressure Visibility Wind Dir Wind Speed Gust Speed Precip Events Conditions
12:54 AM 60.1 °F - 55.9 °F 86% 30.02 in 10.0 mi Calm Calm - N/A   Clear
1:54 AM 60.1 °F - 57.0 °F 90% 30.01 in 10.0 mi SSE 3.5 mph - N/A   Clear
2:54 AM 60.1 °F - 57.0 °F 90% 29.99 in 10.0 mi Calm Calm - N/A   Mostly Cloudy
3:18 AM 59.0 °F - 55.4 °F 88% 29.98 in 10.0 mi Calm Calm - N/A   Scattered Clouds
3:54 AM 59.0 °F - 55.9 °F 90% 29.98 in 10.0 mi SE 3.5 mph - N/A   Clear
4:54 AM 57.9 °F - 55.9 °F 93% 29.98 in 10.0 mi SSE 3.5 mph - N/A   Mostly Cloudy
5:54 AM 59.0 °F - 57.0 °F 93% 29.98 in 10.0 mi SE 3.5 mph - N/A   Overcast
6:54 AM 60.1 °F - 57.9 °F 93% 29.97 in 10.0 mi Variable 3.5 mph - N/A   Scattered Clouds
7:06 AM 60.8 °F - 57.2 °F 88% 29.97 in 10.0 mi SE 4.6 mph - N/A   Mostly Cloudy
7:54 AM 62.1 °F - 59.0 °F 90% 29.96 in 10.0 mi SE 6.9 mph - N/A   Overcast
8:17 AM 62.6 °F - 59.0 °F 88% 29.95 in 10.0 mi SSE 3.5 mph - N/A   Scattered Clouds
8:29 AM 62.6 °F - 59.0 °F 88% 29.95 in 10.0 mi Calm Calm - N/A   Scattered Clouds
8:54 AM 64.0 °F - 60.1 °F 87% 29.95 in 10.0 mi SE 5.8 mph - N/A   Partly Cloudy
9:54 AM 70.0 °F - 63.0 °F 78% 29.92 in 10.0 mi South 5.8 mph - N/A   Partly Cloudy
10:54 AM 75.0 °F - 64.0 °F 69% 29.89 in 10.0 mi SSW 8.1 mph - N/A   Partly Cloudy
11:54 AM 77.0 °F - 64.0 °F 64% 29.86 in 10.0 mi South 9.2 mph - N/A   Partly Cloudy
12:54 PM 80.1 °F 81.7 °F 64.0 °F 58% 29.85 in 10.0 mi SSW 10.4 mph 19.6 mph N/A   Scattered Clouds
1:54 PM 80.1 °F 81.7 °F 64.0 °F 58% 29.83 in 10.0 mi SSW 10.4 mph 18.4 mph N/A   Mostly Cloudy
2:54 PM 82.0 °F 83.1 °F 63.0 °F 52% 29.81 in 10.0 mi SW 11.5 mph - N/A   Clear
3:54 PM 82.4 °F 83.4 °F 62.6 °F 51% 29.79 in 10.0 mi WSW 10.4 mph - N/A   Clear
4:54 PM 82.0 °F 82.4 °F 60.1 °F 47% 29.80 in 10.0 mi SW 10.4 mph - N/A   Overcast
5:54 PM 80.1 °F 80.9 °F 60.1 °F 50% 29.79 in 10.0 mi SW 9.2 mph - N/A   Clear
6:54 PM 78.1 °F - 60.1 °F 54% 29.80 in 10.0 mi SW 6.9 mph - N/A   Clear
7:54 PM 73.0 °F - 64.9 °F 76% 29.83 in 5.0 mi West 20.7 mph 25.3 mph 0.00 in Rain Heavy Rain
8:06 PM 69.8 °F - 66.2 °F 88% 29.84 in 2.5 mi West 15.0 mph - 0.17 in Rain Heavy Rain
8:14 PM 69.8 °F - 66.2 °F 88% 29.84 in 5.0 mi West 12.7 mph - 0.20 in Rain Rain
8:54 PM 68.0 °F - 64.9 °F 90% 29.83 in 10.0 mi Variable 5.8 mph - 0.26 in Rain Light Rain
9:54 PM 66.9 °F - 64.9 °F 93% 29.88 in 8.0 mi West 6.9 mph - 0.06 in Rain Light Rain
10:01 PM 66.2 °F - 66.2 °F 100% 29.89 in 6.0 mi WSW 6.9 mph - 0.00 in Rain Light Rain
10:29 PM 66.2 °F - 64.4 °F 94% 29.88 in 10.0 mi SW 5.8 mph - 0.02 in Rain Light Rain
10:54 PM 66.0 °F - 64.0 °F 93% 29.88 in 10.0 mi Calm Calm - 0.02 in   Mostly Cloudy
11:54 PM 66.0 °F - 64.9 °F 96% 29.89 in 7.0 mi Calm Calm - N/A   Overcast